Tiempo cada hora Dabki

Hoy, 4 Agosto, Miércoles

Tiempo Temperatura Precipitaciones Viento Presión Humedad
00:00 +14°C° 0 mm 1 mps 760 mmHg 79%
01:00 +14°C° 0 mm 1 mps 760 mmHg 81%
02:00 +14°C° 0 mm 1 mps 760 mmHg 81%
03:00 +14°C° 0 mm 1 mps 760 mmHg 81%
04:00 +13°C° 0 mm 1 mps 760 mmHg 81%
05:00 +15°C° 0 mm 1 mps 760 mmHg 76%
06:00 +16°C° 0 mm 1 mps 760 mmHg 71%
07:00 +18°C° 0 mm 1 mps 761 mmHg 66%
08:00 +19°C° 0 mm 1 mps 761 mmHg 61%
09:00 +21°C° 0 mm 1 mps 761 mmHg 55%
10:00 +22°C° 0 mm 1 mps 761 mmHg 50%
11:00 +21°C° 0 mm 2 mps 761 mmHg 49%
12:00 +23°C° 0 mm 2 mps 760 mmHg 47%
13:00 +22°C° 0 mm 3 mps 760 mmHg 46%
14:00 +22°C° 0 mm 3 mps 760 mmHg 47%
15:00 +22°C° 0 mm 3 mps 760 mmHg 49%
16:00 +22°C° 0 mm 3 mps 760 mmHg 50%
17:00 +21°C° 0 mm 3 mps 760 mmHg 55%
18:00 +20°C° 0 mm 3 mps 760 mmHg 61%
19:00 +19°C° 0 mm 3 mps 760 mmHg 66%
20:00 +18°C° 0 mm 3 mps 760 mmHg 71%
21:00 +16°C° 0 mm 3 mps 760 mmHg 76%
22:00 +14°C° 0 mm 3 mps 761 mmHg 81%
23:00 +14°C° 0 mm 3 mps 761 mmHg 83%

Mañana, 5 Agosto, Jueves

Tiempo Temperatura Precipitaciones Viento Presión Humedad
00:00 +14°C° 0 mm 2 mps 761 mmHg 86%
01:00 +14°C° 0 mm 2 mps 760 mmHg 88%
02:00 +14°C° 0 mm 2 mps 760 mmHg 89%
03:00 +14°C° 0 mm 2 mps 760 mmHg 89%
04:00 +14°C° 0 mm 2 mps 760 mmHg 90%
05:00 +15°C° 0 mm 2 mps 760 mmHg 83%
06:00 +16°C° 0 mm 3 mps 760 mmHg 77%
07:00 +18°C° 0 mm 3 mps 760 mmHg 70%
08:00 +19°C° 0 mm 3 mps 760 mmHg 63%
09:00 +21°C° 0 mm 3 mps 760 mmHg 55%
10:00 +22°C° 0 mm 3 mps 760 mmHg 47%
11:00 +23°C° 0 mm 4 mps 759 mmHg 45%
12:00 +25°C° 0 mm 5 mps 759 mmHg 44%
13:00 +24°C° 0 mm 6 mps 759 mmHg 42%
14:00 +24°C° 0 mm 7 mps 758 mmHg 43%
15:00 +24°C° 0 mm 7 mps 758 mmHg 45%
16:00 +23°C° 0 mm 8 mps 758 mmHg 46%
17:00 +23°C° 0 mm 8 mps 758 mmHg 50%
18:00 +22°C° 0 mm 7 mps 757 mmHg 53%
19:00 +21°C° 0 mm 7 mps 757 mmHg 57%
20:00 +20°C° 0 mm 6 mps 757 mmHg 64%
21:00 +17°C° 0 mm 5 mps 757 mmHg 71%
22:00 +16°C° 0 mm 5 mps 757 mmHg 78%
23:00 +17°C° 0 mm 4 mps 757 mmHg 78%

Pasado mañana, 6 Agosto, Viernes

Tiempo Temperatura Precipitaciones Viento Presión Humedad
00:00 +17°C° 0 mm 4 mps 757 mmHg 78%
01:00 +17°C° 0 mm 3 mps 757 mmHg 78%
02:00 +17°C° 0 mm 4 mps 757 mmHg 76%
03:00 +17°C° 0 mm 4 mps 757 mmHg 74%
04:00 +17°C° 0 mm 4 mps 756 mmHg 73%
05:00 +18°C° 0 mm 4 mps 756 mmHg 70%
06:00 +19°C° 0 mm 4 mps 756 mmHg 68%
07:00 +20°C° 0 mm 4 mps 756 mmHg 65%
08:00 +20°C° 0.1 mm 4 mps 756 mmHg 63%
09:00 +21°C° 0.1 mm 4 mps 756 mmHg 60%
10:00 +22°C° 0.1 mm 4 mps 756 mmHg 57%
11:00 +22°C° 0.3 mm 4 mps 756 mmHg 56%
12:00 +23°C° 0.3 mm 4 mps 756 mmHg 55%
13:00 +23°C° 0.3 mm 5 mps 756 mmHg 54%
14:00 +23°C° 0 mm 5 mps 756 mmHg 54%
15:00 +23°C° 0 mm 5 mps 756 mmHg 54%
16:00 +22°C° 0 mm 5 mps 756 mmHg 54%
17:00 +22°C° 0 mm 5 mps 756 mmHg 57%
18:00 +21°C° 0 mm 5 mps 756 mmHg 60%
19:00 +20°C° 0 mm 5 mps 756 mmHg 63%
20:00 +19°C° 0 mm 4 mps 756 mmHg 67%
21:00 +18°C° 0 mm 4 mps 756 mmHg 71%
22:00 +16°C° 0 mm 3 mps 756 mmHg 76%
23:00 +16°C° 0 mm 3 mps 756 mmHg 77%

7 Agosto, Sábado

Tiempo Temperatura Precipitaciones Viento Presión Humedad
00:00 +14°C° 0 mm 3 mps 756 mmHg 79%
01:00 +15°C° 0 mm 2 mps 756 mmHg 80%
02:00 +15°C° 0 mm 2 mps 756 mmHg 80%
03:00 +15°C° 0 mm 2 mps 756 mmHg 80%
04:00 +14°C° 0 mm 2 mps 756 mmHg 80%
05:00 +16°C° 0 mm 2 mps 756 mmHg 72%
06:00 +17°C° 0 mm 3 mps 756 mmHg 65%
07:00 +19°C° 0 mm 3 mps 756 mmHg 58%
08:00 +21°C° 0 mm 2 mps 756 mmHg 53%
09:00 +23°C° 0 mm 2 mps 755 mmHg 49%
10:00 +25°C° 0 mm 2 mps 755 mmHg 44%
11:00 +25°C° 0.1 mm 2 mps 755 mmHg 47%
12:00 +25°C° 0.1 mm 2 mps 755 mmHg 49%
13:00 +25°C° 0.1 mm 2 mps 755 mmHg 52%
14:00 +24°C° 0.3 mm 2 mps 755 mmHg 58%
15:00 +23°C° 0.3 mm 2 mps 755 mmHg 64%
16:00 +22°C° 0.3 mm 1 mps 755 mmHg 69%
17:00 +21°C° 0 mm 2 mps 755 mmHg 71%
18:00 +20°C° 0 mm 2 mps 755 mmHg 73%
19:00 +20°C° 0 mm 2 mps 755 mmHg 75%
20:00 +19°C° 0 mm 2 mps 755 mmHg 76%
21:00 +19°C° 0 mm 2 mps 755 mmHg 77%
22:00 +18°C° 0 mm 3 mps 755 mmHg 77%
23:00 +18°C° 0.3 mm 4 mps 755 mmHg 81%

8 Agosto, Domingo

Tiempo Temperatura Precipitaciones Viento Presión Humedad
00:00 +17°C° 0.3 mm 5 mps 756 mmHg 85%
01:00 +16°C° 0.3 mm 6 mps 756 mmHg 89%
02:00 +16°C° 1 mm 5 mps 756 mmHg 90%
03:00 +17°C° 1 mm 4 mps 755 mmHg 92%
04:00 +17°C° 1 mm 3 mps 755 mmHg 94%
05:00 +17°C° 0.9 mm 4 mps 755 mmHg 93%
06:00 +18°C° 0.9 mm 4 mps 755 mmHg 93%
07:00 +17°C° 0.9 mm 5 mps 755 mmHg 92%
08:00 +20°C° 0.1 mm 6 mps 756 mmHg 84%
09:00 +21°C° 0.1 mm 7 mps 756 mmHg 76%
10:00 +22°C° 0.1 mm 8 mps 757 mmHg 69%
11:00 +23°C° 0 mm 7 mps 757 mmHg 63%
12:00 +23°C° 0 mm 7 mps 758 mmHg 57%
13:00 +24°C° 0 mm 7 mps 758 mmHg 52%
14:00 +24°C° 0 mm 6 mps 758 mmHg 49%
15:00 +25°C° 0 mm 5 mps 759 mmHg 47%
16:00 +25°C° 0 mm 5 mps 759 mmHg 45%
17:00 +23°C° 0 mm 4 mps 759 mmHg 49%
18:00 +22°C° 0 mm 3 mps 759 mmHg 54%
19:00 +21°C° 0 mm 2 mps 760 mmHg 58%
20:00 +20°C° 0.2 mm 3 mps 760 mmHg 65%
21:00 +19°C° 0.2 mm 4 mps 761 mmHg 72%
22:00 +17°C° 0.2 mm 5 mps 761 mmHg 79%
23:00 +16°C° 0.1 mm 5 mps 761 mmHg 81%

9 Agosto, Lunes

Tiempo Temperatura Precipitaciones Viento Presión Humedad
00:00 +16°C° 0.1 mm 5 mps 761 mmHg 83%
01:00 +15°C° 0.1 mm 5 mps 761 mmHg 85%
02:00 +15°C° 0.2 mm 5 mps 762 mmHg 87%
03:00 +14°C° 0.2 mm 5 mps 762 mmHg 89%
04:00 +14°C° 0.2 mm 4 mps 762 mmHg 91%
05:00 +15°C° 0 mm 5 mps 762 mmHg 87%
06:00 +16°C° 0 mm 5 mps 763 mmHg 83%
07:00 +17°C° 0 mm 5 mps 763 mmHg 79%
08:00 +19°C° 0 mm 5 mps 763 mmHg 71%
09:00 +20°C° 0 mm 5 mps 763 mmHg 63%
10:00 +22°C° 0 mm 5 mps 764 mmHg 56%
11:00 +23°C° 0.1 mm 4 mps 763 mmHg 51%
12:00 +25°C° 0.1 mm 3 mps 763 mmHg 47%
13:00 +25°C° 0.1 mm 3 mps 763 mmHg 43%
14:00 +25°C° 0 mm 3 mps 763 mmHg 47%
15:00 +24°C° 0 mm 2 mps 763 mmHg 52%
16:00 +23°C° 0 mm 2 mps 763 mmHg 56%
17:00 +21°C° 0 mm 2 mps 763 mmHg 59%
18:00 +22°C° 0 mm 1 mps 763 mmHg 62%
19:00 +21°C° 0 mm 1 mps 763 mmHg 64%
20:00 +20°C° 0 mm 2 mps 762 mmHg 65%
21:00 +19°C° 0 mm 2 mps 762 mmHg 67%
22:00 +19°C° 0 mm 3 mps 762 mmHg 68%
23:00 +18°C° 0.1 mm 4 mps 762 mmHg 72%
Mostrar más

Necesitamos Su Consentimiento

Meteoprog y nuestros Proveedores de Servicios pueden almacenar y acceder a sus datos personales como cookies, identificadores de dispositivo u otras tecnologías similares de su dispositivo y procesar dichos datos para personalizar contenido y anuncios, además de ofrecer funciones de redes sociales y analizar el tráfico.

  • Almacenar y/o acceder a información en su dispositivo

    Se puede almacenar o acceder a cookies, identificadores de dispositivo u otra información de su dispositivo para los fines anteriormente indicados.

  • Anuncios y contenido personalizados, medición de anuncios y contenido, percepciones del público, y desarrollo de productos

    Los anuncios y el contenido pueden personalizarse en base a su perfil. Se pueden añadir más datos para personalizar mejor los anuncios y contenidos. Se puede medir el rendimiento de los anuncios y contenidos. Se puede obtener la percepción sobre el público que ha visto los anuncios y contenidos. Dichos datos pueden usarse para desarrollar o mejorar la experiencia del usuario, sistemas y software.

Al hacer clic en ‘Estoy De Acuerdo’ usted permitirá el uso de las cookies, identificadores de dispositivo, balizas web u otras tecnologías similares indicadas. Su configuración puede cambiarse desde el navegador de su dispositivo.

Para ciertos fines, los intereses legítimos pueden ser considerados por encima del consentimiento. Puede leer más sobre ello en nuestra Política de Privacidad y Cookies.